Weather History for KGCD - October, 2012

Change the Weather History Date:

Saturday, October 6, 2012

  Actual Average (KBNO) Record (KBNO)
Temperature  
Mean Temperature 47 °F 48 °F  
Max Temperature 64 °F 67 °F 85 °F (1980)
Min Temperature 30 °F 30 °F 16 °F (2009)
Degree Days  
Heating Degree Days 18 17  
Month to date heating degree days 95  
Since 1 July heating degree days 514  
Cooling Degree Days 0 0  
Month to date cooling degree days 0  
Year to date cooling degree days 215  
Moisture  
Dew Point 13 °F    
Average Humidity 30    
Maximum Humidity 51    
Minimum Humidity 9    
Precipitation  
Precipitation 0.00 in 0.02 in 0.30 in (1957)
Month to date precipitation 0.11  
Year to date precipitation 7.53  
Sea Level Pressure  
Sea Level Pressure 30.23 in    
Wind  
Wind Speed 5 mph (SE)    
Max Wind Speed 12 mph    
Max Gust Speed -    
Visibility 10 miles    
Events      
T = Trace of Precipitation, MM = Missing Value Source: NWS Daily Summary

Daily Weather History Graph

Daily Weather History Graph

Search for Another Location

Airport or City:

Trip Planner

Search our weather history database for the weather conditions in past years. The results will help you decide how hot, cold, wet, or windy it might be!

Date:

Astronomy

Oct. 06, 2012 Rise Set
Actual Time 7:00 AM PDT 6:26 PM PDT
Civil Twilight 6:31 AM PDT 6:55 PM PDT
Nautical Twilight 5:57 AM PDT 7:28 PM PDT
Astronomical Twilight 5:23 AM PDT 8:02 PM PDT
Moon 10:36 PM PDT (10/6) 1:08 PM PDT (10/6)
Length of Visible Light 12h 23m
Length of Day
11h 25m
Waning Gibbous, 64% of the Moon is Illuminated
Oct 6
Waning Gibbous
Oct 8
Last Quarter
Oct 15
New
Oct 21
First Quarter
Oct 29
Full

Hourly Weather History & Observations

Time (PDT) Temp. Windchill Dew Point Humidity Pressure Visibility Wind Dir Wind Speed Gust Speed Precip Events Conditions
12:15 AM 42.8 °F 41.1 °F 17.6 °F 36% 30.26 in 10.0 mi SW 3.5 mph - N/A   Clear
12:35 AM 41.0 °F 39.0 °F 17.6 °F 39% 30.26 in 10.0 mi WSW 3.5 mph - N/A   Clear
12:55 AM 41.0 °F - 17.6 °F 39% 30.26 in 10.0 mi Calm Calm - N/A   Clear
1:15 AM 35.6 °F 30.7 °F 12.2 °F 38% 30.26 in 10.0 mi East 5.8 mph - N/A   Clear
1:35 AM 35.6 °F 27.5 °F 12.2 °F 38% 30.27 in 10.0 mi ESE 11.5 mph - N/A   Clear
1:55 AM 33.8 °F 27.0 °F 12.2 °F 41% 30.27 in 10.0 mi East 8.1 mph - N/A   Clear
2:35 AM 33.8 °F 25.8 °F 12.2 °F 41% 30.27 in 10.0 mi ESE 10.4 mph - N/A   Clear
2:55 AM 33.8 °F 25.8 °F 12.2 °F 41% 30.27 in 10.0 mi East 10.4 mph - N/A   Clear
3:15 AM 32.0 °F 23.6 °F 12.2 °F 44% 30.27 in 10.0 mi SE 10.4 mph - N/A   Clear
3:35 AM 33.8 °F 28.6 °F 12.2 °F 41% 30.26 in 10.0 mi East 5.8 mph - N/A   Clear
3:55 AM 33.8 °F 26.4 °F 14.0 °F 44% 30.27 in 10.0 mi ESE 9.2 mph - N/A   Clear
4:15 AM 32.0 °F 24.8 °F 14.0 °F 48% 30.27 in 10.0 mi ESE 8.1 mph - N/A   Clear
4:35 AM 33.8 °F 25.3 °F 14.0 °F 44% 30.27 in 10.0 mi ESE 11.5 mph - N/A   Clear
4:55 AM 32.0 °F 28.7 °F 14.0 °F 48% 30.27 in 10.0 mi ESE 3.5 mph - N/A   Clear
5:15 AM 32.0 °F 28.7 °F 14.0 °F 48% 30.27 in 10.0 mi ESE 3.5 mph - N/A   Clear
5:35 AM 30.2 °F 23.4 °F 14.0 °F 51% 30.27 in 10.0 mi East 6.9 mph - N/A   Clear
5:55 AM 32.0 °F 24.2 °F 14.0 °F 48% 30.28 in 10.0 mi ESE 9.2 mph - N/A   Clear
6:15 AM 32.0 °F 24.2 °F 14.0 °F 48% 30.28 in 10.0 mi ESE 9.2 mph - N/A   Clear
6:35 AM 32.0 °F 25.6 °F 14.0 °F 48% 30.28 in 10.0 mi ESE 6.9 mph - N/A   Clear
6:55 AM 30.2 °F 22.6 °F 14.0 °F 51% 30.29 in 10.0 mi ESE 8.1 mph - N/A   Clear
7:15 AM 32.0 °F 24.2 °F 14.0 °F 48% 30.28 in 10.0 mi ESE 9.2 mph - N/A   Clear
7:35 AM 32.0 °F 27.5 °F 14.0 °F 48% 30.28 in 10.0 mi ESE 4.6 mph - N/A   Clear
7:55 AM 32.0 °F 23.6 °F 14.0 °F 48% 30.28 in 10.0 mi SE 10.4 mph - N/A   Clear
8:15 AM 33.8 °F 29.6 °F 15.8 °F 48% 30.28 in 10.0 mi ESE 4.6 mph - N/A   Clear
8:35 AM 33.8 °F 25.8 °F 14.0 °F 44% 30.29 in 10.0 mi SE 10.4 mph - N/A   Clear
8:55 AM 35.6 °F 29.2 °F 15.8 °F 44% 30.29 in 10.0 mi ESE 8.1 mph - N/A   Clear
9:15 AM 37.4 °F 31.4 °F 15.8 °F 41% 30.28 in 10.0 mi SE 8.1 mph - N/A   Clear
9:35 AM 41.0 °F 38.0 °F 15.8 °F 36% 30.28 in 10.0 mi ESE 4.6 mph - N/A   Clear
9:55 AM 41.0 °F 38.0 °F 17.6 °F 39% 30.29 in 10.0 mi East 4.6 mph - N/A   Clear
10:15 AM 44.6 °F - 19.4 °F 37% 30.28 in 10.0 mi Calm Calm - N/A   Clear
10:35 AM 46.4 °F 45.2 °F 19.4 °F 34% 30.27 in 10.0 mi WNW 3.5 mph - N/A   Clear
10:55 AM 46.4 °F 45.2 °F 19.4 °F 34% 30.27 in 10.0 mi WNW 3.5 mph - N/A   Clear
11:15 AM 50.0 °F - 19.4 °F 30% 30.26 in 10.0 mi Calm Calm - N/A   Clear
11:35 AM 51.8 °F - 19.4 °F 28% 30.25 in 10.0 mi NW 3.5 mph - N/A   Clear
11:55 AM 51.8 °F - 19.4 °F 28% 30.25 in 10.0 mi Calm Calm - N/A   Clear
12:15 PM 53.6 °F - 19.4 °F 26% 30.24 in 10.0 mi WNW 3.5 mph - N/A   Clear
12:35 PM 55.4 °F - 17.6 °F 23% 30.23 in 10.0 mi East 3.5 mph - N/A   Clear
12:55 PM 57.2 °F - 17.6 °F 21% 30.23 in 10.0 mi Calm Calm - N/A   Clear
1:15 PM 59.0 °F - 14.0 °F 17% 30.21 in 10.0 mi Calm Calm - N/A   Clear
1:35 PM 59.0 °F - 14.0 °F 17% 30.21 in 10.0 mi Calm Calm - N/A   Clear
1:55 PM 60.8 °F - 12.2 °F 15% 30.20 in 10.0 mi NNW 3.5 mph - N/A   Clear
2:15 PM 60.8 °F - 12.2 °F 15% 30.19 in 10.0 mi Calm Calm - N/A   Clear
2:35 PM 62.6 °F - 10.4 °F 13% 30.19 in 10.0 mi NW 4.6 mph - N/A   Clear
2:55 PM 62.6 °F - 10.4 °F 13% 30.18 in 10.0 mi NW 4.6 mph - N/A   Clear
3:15 PM 62.6 °F - 10.4 °F 13% 30.18 in 10.0 mi WNW 5.8 mph - N/A   Clear
3:35 PM 64.4 °F - 10.4 °F 12% 30.17 in 10.0 mi West 4.6 mph - N/A   Clear
3:55 PM 64.4 °F - 6.8 °F 10% 30.16 in 10.0 mi WNW 4.6 mph - N/A   Clear
4:15 PM 64.4 °F - 3.2 °F 9% 30.15 in 10.0 mi West 3.5 mph - N/A   Clear
4:35 PM 64.4 °F - 3.2 °F 9% 30.15 in 10.0 mi WNW 4.6 mph - N/A   Clear
4:55 PM 64.4 °F - 5.0 °F 10% 30.15 in 10.0 mi WNW 3.5 mph - N/A   Clear
5:15 PM 62.6 °F - 5.0 °F 10% 30.14 in 10.0 mi WNW 5.8 mph - N/A   Clear
5:35 PM 60.8 °F - 5.0 °F 11% 30.15 in 10.0 mi WNW 6.9 mph - N/A   Clear
5:55 PM 60.8 °F - 5.0 °F 11% 30.15 in 10.0 mi West 6.9 mph - N/A   Clear
6:15 PM 59.0 °F - 8.6 °F 14% 30.15 in 10.0 mi West 8.1 mph - N/A   Clear
6:35 PM 55.4 °F - 8.6 °F 15% 30.15 in 10.0 mi West 5.8 mph - N/A   Clear
6:55 PM 55.4 °F - 8.6 °F 15% 30.16 in 10.0 mi WSW 5.8 mph - N/A   Clear
7:15 PM 51.8 °F - 8.6 °F 18% 30.16 in 10.0 mi Calm Calm - N/A   Clear
7:35 PM 53.6 °F - 8.6 °F 16% 30.16 in 10.0 mi WSW 3.5 mph - N/A   Clear
7:55 PM 51.8 °F - 8.6 °F 18% 30.16 in 10.0 mi SW 5.8 mph - N/A   Clear
9:15 PM 51.8 °F - 10.4 °F 19% 30.17 in 10.0 mi Calm Calm - N/A   Clear
9:35 PM 46.4 °F 44.3 °F 10.4 °F 23% 30.17 in 10.0 mi East 4.6 mph - N/A   Clear
9:55 PM 44.6 °F 39.7 °F 12.2 °F 27% 30.18 in 10.0 mi ESE 9.2 mph - N/A   Clear
10:15 PM 46.4 °F 43.5 °F 10.4 °F 23% 30.18 in 10.0 mi ESE 5.8 mph - N/A   Clear
10:35 PM 46.4 °F 44.3 °F 10.4 °F 23% 30.19 in 10.0 mi ESE 4.6 mph - N/A   Clear
10:55 PM 42.8 °F 41.1 °F 12.2 °F 29% 30.19 in 10.0 mi SE 3.5 mph - N/A   Clear
11:15 PM 42.8 °F 40.1 °F 10.4 °F 27% 30.19 in 10.0 mi ESE 4.6 mph - N/A   Clear
11:35 PM 39.2 °F 35.0 °F 12.2 °F 33% 30.19 in 10.0 mi ESE 5.8 mph - N/A   Clear
11:55 PM 41.0 °F 37.1 °F 10.4 °F 29% 30.19 in 10.0 mi ESE 5.8 mph - N/A   Clear